FW3988 Weather Reports


time (UTC)temp
C
wind
direction
speed
KPH
gust
KPH
rain 1hr
cm
rain 24hr
cm
rain mn
cm
humidity
%
barometer
mb
20260906001553 32 272 11.3 19.3 0.00 0.46 0.10 74 1007.8
20260906000023 32 271 8.0 17.7 0.00 0.46 0.10 74 1007.8
20260905234514 32 279 9.7 20.9 0.00 0.46 0.10 72 1007.9
20260905233117 32 274 9.7 16.1 0.00 0.46 0.10 71 1007.9
20260905231551 32 243 11.3 22.5 0.00 0.46 0.10 71 1007.8
20260905230148 32 227 8.0 19.3 0.00 0.46 0.10 71 1007.7
20260905224530 33 259 9.7 17.7 0.00 0.46 0.10 72 1007.8
20260905223013 32 291 9.7 20.9 0.00 0.46 0.10 72 1007.8
20260905221556 32 265 6.4 19.3 0.00 0.46 0.10 71 1007.9
20260905220013 32 265 11.3 22.5 0.00 0.46 0.10 72 1008.0
20260905214505 32 248 9.7 22.5 0.00 0.46 0.10 73 1008.3
20260905213103 33 249 11.3 22.5 0.00 0.46 0.10 70 1008.3
20260905211548 33 264 8.0 19.3 0.00 0.46 0.10 70 1008.6
20260905210146 33 244 9.7 24.1 0.00 0.46 0.10 70 1008.6
20260905204544 33 255 9.7 22.5 0.00 0.46 0.10 70 1008.8
20260905203038 33 281 12.9 20.9 0.00 0.46 0.10 70 1008.9
20260905201542 33 262 11.3 24.1 0.00 0.46 0.10 70 1009.3
20260905200136 32 226 12.9 19.3 0.00 0.46 0.10 71 1009.4
20260905194528 33 242 11.3 19.3 0.00 0.46 0.10 71 1009.9
20260905193012 33 238 9.7 25.7 0.00 0.46 0.10 68 1009.9
20260905191600 33 257 8.0 20.9 0.00 0.46 0.10 66 1010.0
20260905190030 33 267 9.7 17.7 0.00 0.46 0.10 67 1010.3
20260905184520 33 287 9.7 16.1 0.00 0.46 0.10 65 1010.4
20260905183117 33 250 6.4 17.7 0.00 0.46 0.10 67 1010.7
20260905181547 33 263 8.0 17.7 0.00 0.46 0.10 65 1010.9
20260905180132 33 254 9.7 17.7 0.00 0.46 0.10 60 1011.0
20260905174517 33 284 6.4 19.3 0.00 0.46 0.10 58 1011.0
20260905173100 33 301 6.4 14.5 0.00 0.46 0.10 61 1010.9
20260905173000 33 264 9.7 14.5 0.00 0.46 0.10 62 1010.9
20260905171554 33 335 0.0 11.3 0.00 0.46 0.10 65 1010.9
20260905170139 32 316 6.4 12.9 0.00 0.46 0.10 65 1011.1
20260905164511 32 290 1.6 14.5 0.00 0.46 0.10 67 1011.2
20260905163002 32 340 4.8 16.1 0.00 0.46 0.10 68 1011.3
20260905161541 31 313 6.4 12.9 0.00 0.46 0.10 68 1011.3
20260905160142 31 316 3.2 8.0 0.00 0.46 0.10 70 1011.3
20260905154540 31 360 0.0 8.0 0.00 0.46 0.10 74 1011.3
20260905153022 30 22 3.2 6.4 0.00 0.46 0.10 78 1011.4
20260905151503 29 57 0.0 4.8 0.00 0.46 0.10 79 1011.5
20260905150141 29 55 0.0 4.8 0.00 0.46 0.10 80 1011.5
20260905144528 29 72 3.2 6.4 0.00 0.46 0.10 80 1011.4
20260905143027 29 46 0.0 3.2 0.00 0.46 0.10 79 1011.3
20260905141507 28 46 0.0 3.2 0.00 0.46 0.10 81 1011.4
20260905140026 28 46 1.6 4.8 0.00 0.46 0.10 85 1011.3
20260905134524 27 38 1.6 4.8 0.00 0.46 0.10 86 1011.2
20260905133008 27 30 0.0 3.2 0.00 0.46 0.10 87 1010.9
20260905131612 27 30 0.0 3.2 0.00 0.46 0.10 87 1010.7
20260905130010 27 30 1.6 6.4 0.00 0.46 0.10 88 1010.4
20260905124544 27 32 3.2 6.4 0.00 0.46 0.10 87 1010.1
20260905123017 27 19 1.6 8.0 0.00 0.46 0.10 87 1010.0
20260905121504 27 20 1.6 6.4 0.00 0.46 0.10 87 1010.1
20260905120148 27 347 1.6 6.4 0.00 0.46 0.10 88 1010.1
20260905114525 27 30 3.2 4.8 0.00 0.46 0.10 87 1010.3
20260905113006 27 26 1.6 6.4 0.00 0.46 0.10 87 1010.3
20260905111555 27 343 0.0 3.2 0.00 0.46 0.10 86 1010.4
20260905110135 27 343 3.2 4.8 0.00 0.46 0.10 86 1010.5
20260905104509 27 311 0.0 3.2 0.00 0.46 0.10 86 1010.7
20260905103006 27 311 0.0 1.6 0.00 0.46 0.10 86 1010.8
20260905101559 27 311 0.0 3.2 0.00 0.46 0.10 86 1011.0
20260905100155 27 311 0.0 3.2 0.00 0.46 0.10 86 1010.9
20260905094556 27 311 0.0 3.2 0.00 0.46 0.10 86 1010.8
20260905093053 27 310 0.0 3.2 0.00 0.46 0.10 86 1010.9
20260905091546 27 310 0.0 3.2 0.00 0.46 0.10 86 1010.9
20260905090002 27 310 1.6 4.8 0.00 0.46 0.10 86 1010.9
20260905084504 27 5 0.0 4.8 0.00 0.46 0.10 87 1011.0
20260905083001 27 355 4.8 9.7 0.00 0.46 0.10 89 1011.1
20260905081600 27 24 1.6 9.7 0.03 0.46 0.10 91 1011.2
20260905080138 27 333 1.6 8.0 0.08 0.46 0.10 91 1011.1
20260905074521 27 298 1.6 8.0 0.33 0.46 0.10 91 1011.1
20260905073024 27 321 1.6 9.7 0.43 0.46 0.10 89 1011.0
20260905071502 27 331 4.8 9.7 0.41 0.43 0.08 87 1010.7
20260905070019 27 316 3.2 8.0 0.33 0.38 0.03 88 1010.9
20260905064513 28 325 0.0 3.2 0.08 0.13 0.13 87 1011.3
20260905063015 28 321 1.6 8.0 0.00 0.05 0.05 86 1011.5
20260905061556 28 296 1.6 4.8 0.00 0.05 0.05 87 1011.6
20260905060142 27 263 4.8 11.3 0.00 0.05 0.05 87 1011.5
20260905054533 27 244 0.0 3.2 0.05 0.05 0.05 86 1011.2
20260905053004 27 244 0.0 3.2 0.05 0.05 0.05 86 1011.2
20260905051552 27 242 0.0 8.0 0.05 0.05 0.05 86 1011.2
20260905050146 26 231 1.6 11.3 0.05 0.05 0.05 88 1011.5
20260905044548 28 218 9.7 24.1 0.00 0.00 0.00 81 1011.7
20260905043047 28 228 12.9 27.4 0.00 0.00 0.00 79 1011.5
20260905041537 30 304 9.7 16.1 0.00 0.00 0.00 79 1011.5
20260905040007 30 338 6.4 14.5 0.00 0.00 0.00 77 1011.0
20260905034556 31 22 4.8 12.9 0.00 0.00 0.00 78 1011.1
20260905033054 31 311 1.6 17.7 0.00 0.00 0.00 78 1011.0
20260905031558 31 271 11.3 19.3 0.00 0.00 0.00 77 1010.7
20260905030022 32 306 8.0 19.3 0.00 0.00 0.00 76 1010.5
20260905024508 32 290 3.2 19.3 0.00 0.00 0.00 75 1010.4
20260905023049 31 286 8.0 17.7 0.00 0.00 0.00 75 1010.3
20260905021538 31 275 6.4 16.1 0.00 0.00 0.00 75 1010.4
20260905020135 31 292 6.4 17.7 0.00 0.00 0.00 75 1010.2
20260905014518 32 284 11.3 19.3 0.00 0.00 0.00 74 1010.0
20260905013011 32 310 8.0 16.1 0.00 0.00 0.00 74 1010.0
20260905011554 32 267 8.0 19.3 0.00 0.00 0.00 74 1010.0
20260905010145 32 286 6.4 20.9 0.00 0.00 0.00 73 1010.0
20260905004507 32 258 8.0 16.1 0.00 0.00 0.00 73 1009.6
20260905003001 32 240 11.3 20.9 0.00 0.00 0.00 71 1009.6